Hourly Weather Roundup
Issued by NWS Central Illinois

Home | Current Version | Previous Version | Text Only | Print | Product List | Glossary On
Versions: 1 2 3 4 5 6 7 8 9 10 11 12 13 14 15 16 17 18 19 20 21 22 23 24 25 26 27 28 29 30 31 32 33 34 35 36 37 38 39 40 41 42 43 44 45 46 47 48 49 50
000
NZUS43 KILX 311810
HWRILX

AREA WEATHER ROUNDUP
NATIONAL WEATHER SERVICE, LINCOLN IL
100 PM CDT FRI OCT 31 2014


CITY           SKY/WX    TMP DP  RH WIND       PRES   REMARKS
BLOOMINGTON    PTSUNNY   42  26  53 N30G40    30.21R WCI  31
6HR MIN TEMP:  35; 6HR MAX TEMP:  42;

CHAMPAIGN      CLOUDY    41  27  57 NW26G38   30.15S WCI  30
6HR MIN TEMP:  36; 6HR MAX TEMP:  42;

DECATUR        PTSUNNY   43  27  53 N29G37    30.20S WCI  33
6HR MIN TEMP:  36; 6HR MAX TEMP:  43;

FLORA          SUNNY     42  29  60 N21G31    30.18S WCI  32
6HR MIN TEMP:  41; 6HR MAX TEMP:  46;

GALESBURG      MOSUNNY   42  23  45 N24G30    30.32S WCI  33
JACKSONVILLE   MOSUNNY   45  25  45 N24G32    30.30S
6HR MIN TEMP:  38; 6HR MAX TEMP:  45;

LACON          MOSUNNY   43  21  41 N17G30    30.25F WCI  35
6HR MIN TEMP:  33; 6HR MAX TEMP:  43;

LAWRENCEVILLE  PTSUNNY   43  29  57 NW22G31   30.12F WCI  34
6HR MIN TEMP:  40; 6HR MAX TEMP:  47; 6HR PCP: TRACE;

LITCHFIELD     PTSUNNY   41  26  55 N23G31    30.25F WCI  31
$$


CITY           SKY/WX    TMP DP  RH WIND       PRES   REMARKS
LINCOLN        MOSUNNY   45  25  45 N21G26    30.23F
6HR MIN TEMP:  38; 6HR MAX TEMP:  45;

MACOMB         MOSUNNY   43  22  43 N22G38    30.35S WCI  34
MATTOON        CLOUDY    40  28  62 N29G37    30.15F WCI  29
6HR MIN TEMP:  37; 6HR MAX TEMP:  45; 6HR PCP: TRACE;

MT CARMEL AP   PTSUNNY   46  32  57 NW22G30   30.12S
OLNEY-NOBLE AP CLOUDY    39  30  70 NW25G33   30.16S WCI  28
PARIS          CLOUDY    41  31  68 NW21G26   30.12S WCI  32
6HR MIN TEMP:  38; 6HR MAX TEMP:  44;

PEORIA         MOSUNNY   44  21  40 N16G29    30.26F
6HR MIN TEMP:  36; 6HR MAX TEMP:  45;

PONTIAC        PTSUNNY   42  25  51 N28G40    30.21R WCI  31
RANTOUL        CLOUDY    43  27  53 N22G32    30.14F WCI  33
6HR MIN TEMP:  38; 6HR MAX TEMP:  43;

ROBINSON       PTSUNNY   44  32  63 N22G32    30.13S WCI  35
6HR MIN TEMP:  42; 6HR MAX TEMP:  47; 6HR PCP:  0.01;

SPRINGFIELD    MOSUNNY   44  24  45 NW21G35   30.26F
6HR MIN TEMP:  38; 6HR MAX TEMP:  45;

TAYLORVILLE    CLOUDY    41  28  60 NW18G28   30.24S WCI  32
$$

...REGIONAL REPORTS...


CITY           SKY/WX    TMP DP  RH WIND       PRES   REMARKS
CHICAGO O`HARE PTSUNNY   41  24  51 N32G43    30.15S WCI  29
KANKAKEE       CLOUDY    38  28  65 NW23G36   30.14S WCI  28
MOLINE         MOSUNNY   42  20  41 N18G26    30.33F WCI  34
MOUNT VERNON   PTSUNNY   45  27  49 N9G21     30.20S
PITTSFIELD     MOSUNNY   43  25  48 NW20G25   30.34S WCI  35
QUINCY         SUNNY     42  22  44 N17G30    30.35F WCI  34
ROCKFORD       PTSUNNY   39  20  46 N26G38    30.30R WCI  28
$$


CITY           SKY/WX    TMP DP  RH WIND       PRES   REMARKS
BURLINGTON     SUNNY     42  23  46 N21G29    30.36S WCI  33
CEDAR RAPIDS   SUNNY     40  21  46 N20G29    30.40F WCI  30
DES MOINES     SUNNY     40  19  43 N13G24    30.50F WCI  32
KIRKSVILLE     SUNNY     42  20  41 NW16G22   30.43S WCI  34
OTTUMWA        LGT RAIN  41  21  44 N17G26    30.43F WCI  32
ST LOUIS       MOSUNNY   45  25  45 NW22G28   30.30R
$$


CITY           SKY/WX    TMP DP  RH WIND       PRES   REMARKS
TERRE HAUTE    CLOUDY    41  30  65 NW21G31   30.09F WCI  32
EVANSVILLE     LGT RAIN  46  27  47 N17G26    30.11F
INDIANAPOLIS   PTSUNNY   40  32  73 NW16G25   30.01S WCI  31
LAFAYETTE      PTSUNNY   41  29  62 NW21G32   30.04F WCI  32
MADISON        PTSUNNY   37  19  48 N25G32    30.34R WCI  25
MILWAUKEE      CLOUDY    38  23  55 N31G44    30.21S WCI  25
$$





USA.gov is the U.S. government's official web portal to all federal, state and local government web resources and services.